{"data":{"norad_id":46810,"intl_designator":"2020-076D","name":"TIANQI-6","alt_names":[],"object_type":"PAYLOAD","status":"ACTIVE","operator":null,"country":"PRC","launch_date":"2020-10-26","launch_site_code":"XICLF","launch_vehicle":null,"mission":null,"orbit_class":"UNKNOWN","rcs_meters":null,"size_class":null,"mass_kg":null,"dimensions":null,"purposes":[],"wikipedia_slug":null,"has_3d_model":false,"image_url":null,"decayed_at":null,"tle_current":{"epoch":"2026-05-25T05:12:56.124864Z","epoch_age_seconds":52420,"freshness":"FRESH","line1":"1 46810U 20076D   26145.21731626  .00002792  00000+0  18434-3 0  9992","line2":"2 46810  34.9977 189.4212 0010631 322.6497  37.3473 15.07006489305118","mean_motion":15.07006489,"eccentricity":0.0010631,"inclination_deg":34.9977,"raan_deg":189.4212,"arg_perigee_deg":322.6497,"mean_anomaly_deg":37.3473,"bstar":0.00018434,"rev_number":30511,"period_min":95.553669510444,"perigee_km":537.9930172983,"apogee_km":552.71374254409,"semimajor_km":6923.4903799212,"source":"CELESTRAK","updated_at":"2026-05-25T13:37:56.366158Z"}}}